[[{"header":{"parameterUnit":"m.s-1","parameterCategory":1,"la1":30.2991,"la2":30.254,"lo1":-89.0895,"lo2":-89.0444,"dy":0.0017,"dx":0.0017,"nx":28,"ny":28,"refTime":"2025-06-07T21:00:00:Z","depth":0,"parameterNumber":2,"parameterNumberName":"U-component_of_WINDS"},"data":[0,0,0,0,0,0,0,0,0,0,0,0,0,0,0,0,0,0,0,0,0,0,0,0,0,0,0,0,0,0,0,0,0,0,0,0,0,0,0,0,0,0,0,0,0,0,0,0,0,0,0,0,0,0,0,0,0,0,2.1305,2.1306,0,2.1359,2.136,2.136,2.1363,2.1362,2.1361,2.1361,2.142,2.1422,2.1425,0,0,0,0,0,0,0,0,0,0,0,0,0,2.1207,2.1209,2.1305,2.1306,2.1306,2.1359,2.136,2.1361,2.1363,2.1362,2.1361,2.1361,2.142,2.1422,2.1425,0,0,0,0,0,0,0,0,0,0,0,0,0,2.1255,2.121,2.1305,2.1314,2.1315,2.1359,2.136,2.1361,2.1363,2.1362,2.1361,2.136,2.1419,2.1422,2.1425,2.1465,0,0,2.1435,2.1437,0,0,0,0,0,0,0,0,2.1252,2.1258,2.1312,2.1313,2.1315,2.1353,2.1347,2.1396,2.1363,2.1345,2.1361,2.136,2.1399,2.1404,2.1416,2.1468,2.147,2.1435,2.1437,2.1439,2.144,0,0,0,0,0,0,0,2.1249,2.1256,2.1327,2.1313,2.1314,2.1316,2.1322,2.1356,2.1377,2.1346,2.1347,2.1353,2.14,2.1413,2.1418,2.1471,2.1435,2.1438,2.144,2.1442,2.156,2.1561,0,0,0,0,0,0,2.1243,2.1253,2.1325,2.1328,2.128,2.1319,2.1325,2.1342,2.1377,2.1381,2.1354,2.1353,2.1408,2.1414,2.142,2.147,2.1439,2.1442,2.1444,2.1559,2.156,2.1561,0,0,0,0,0,0,2.1241,2.1249,2.1323,2.1291,2.13,2.1322,2.134,2.1343,2.1357,2.1382,2.1386,2.1363,2.1407,2.1415,2.1454,2.1472,2.1443,2.1446,2.1557,2.1559,2.1561,2.157,0,0,0,0,0,0,2.1238,2.1249,2.1263,2.1291,2.1302,2.1355,2.1341,2.1345,2.1362,2.1361,2.1392,2.1396,2.1407,2.1449,2.1457,2.1476,2.1449,2.1556,2.1558,2.156,2.1568,2.1571,2.1574,0,0,0,0,0,2.1235,2.1264,2.1264,2.1273,2.132,2.1356,2.1362,2.1373,2.1363,2.1379,2.1395,2.1395,2.1468,2.1453,2.1462,2.1482,2.1555,2.1557,2.156,2.1566,2.1571,2.1574,0,0,0,0,0,0,2.1239,2.1268,2.1268,2.1307,2.1329,2.1356,2.1376,2.1377,2.1403,2.1401,2.1415,2.1422,2.146,2.1475,2.1457,2.1523,2.1511,2.1515,2.1512,2.1517,2.152,2.1516,2.1452,0,0,0,0,0,2.1244,2.1269,2.1294,2.1326,2.1337,2.1354,2.137,2.1376,2.14,2.141,2.1429,2.1452,2.1481,2.1499,2.1527,2.1569,2.1577,2.1588,2.1591,2.1594,2.1598,2.1623,2.1629,2.157,2.157,2.157,0,0,2.1256,2.1275,2.129,2.1327,2.1345,2.1372,2.1362,2.1391,2.1412,2.1414,2.1452,2.1467,2.1494,2.1535,2.1555,2.1549,2.1616,2.1597,2.1599,2.1602,2.1626,2.1632,2.1637,2.1572,2.1571,2.1571,0,0,2.1291,2.1307,2.1336,2.1354,2.138,2.1392,2.1399,2.1426,2.1435,2.1473,2.1476,2.1501,2.1549,2.1569,2.1586,2.1629,2.1631,2.1637,2.1656,2.168,2.1684,2.1689,2.1705,2.1711,2.1641,2.1641,2.1641,0,2.1303,2.1343,2.1352,2.1381,2.1397,2.14,2.143,2.1447,2.1482,2.1494,2.1487,2.1548,2.1566,2.1613,2.1623,2.1636,2.1646,2.1635,2.1683,2.1687,2.1691,2.1707,2.1713,2.1642,2.1642,2.1642,2.1642,0,2.1356,2.1384,2.1404,2.1436,2.1455,2.1485,2.15,2.1518,2.1523,2.1536,2.1575,2.1597,2.1629,2.1641,2.1646,2.1688,2.1684,2.1679,2.1667,2.1697,2.1713,2.1719,2.1643,2.1643,2.1643,2.1642,0,0,2.1397,2.1433,2.144,2.1455,2.1485,2.1507,2.1537,2.1567,2.1584,2.1607,2.1634,2.1675,2.1671,2.1689,2.1697,2.1718,2.1752,2.1711,2.1712,2.1719,2.1802,2.1806,2.1813,2.1753,2.1754,2.1755,2.18,0,2.1436,2.1488,2.1498,2.1544,2.1571,2.1573,2.16,2.1621,2.1634,2.1659,2.1673,2.1703,2.1694,2.1706,2.1727,2.1743,2.1769,2.174,2.178,2.1781,2.1774,2.182,2.1825,2.1866,2.1806,2.1807,2.1807,0,2.1489,2.1513,2.1562,2.1588,2.16,2.1623,2.1652,2.1676,2.1701,2.1709,2.1729,2.1734,2.1767,2.1752,2.1799,2.1779,2.1796,2.1806,2.1808,2.1814,2.1797,2.1828,2.1879,2.1886,2.1817,2.1816,2.1815,0,2.1516,2.156,2.1595,2.1608,2.1639,2.1655,2.1669,2.1693,2.1711,2.1737,2.1749,2.1779,2.1795,2.1819,2.1832,2.182,2.1878,2.1864,2.1887,2.1887,2.1901,2.19,2.1956,2.1909,2.1909,2.1909,2.1909,0,2.1559,2.159,2.1607,2.1629,2.1664,2.1674,2.1708,2.1722,2.1743,2.1769,2.1773,2.1797,2.1813,2.184,2.1851,2.1888,2.1895,2.1904,2.1907,2.1904,2.1903,2.1916,2.1914,2.191,2.191,2.191,2.1909,0,2.1595,2.1608,2.1647,2.1673,2.168,2.1704,2.1727,2.1749,2.1761,2.1794,2.1802,2.1822,2.1854,2.1869,2.1909,2.1916,2.196,2.196,2.1951,2.1952,2.1975,2.1973,2.2043,2.2053,2.1997,2.1998,2.1998,0,2.1623,2.1646,2.1674,2.1691,2.1705,2.1732,2.175,2.1762,2.1781,2.1811,2.183,2.1861,2.1888,2.1939,2.1958,2.1989,2.1991,2.2013,2.1995,2.1992,2.1993,2.1992,2.1995,2.2016,2.2017,2.2017,2.2018,0,2.1671,2.1677,2.1702,2.173,2.1751,2.1774,2.1796,2.181,2.1825,2.1847,2.1879,2.1899,2.1939,2.1971,2.2003,2.2019,2.2022,2.2023,2.203,2.2029,2.2023,2.2028,2.1961,2.2022,2.2021,2.2021,2.2021,2.2021,2.1705,2.1726,2.1749,2.1777,2.1795,2.1816,2.1838,2.1853,2.1879,2.1912,2.1918,2.1952,2.1978,2.2021,2.2038,2.2066,2.2061,2.2071,2.2074,2.2076,2.2078,2.2017,2.2071,2.2071,2.2071,2.2071,2.2071,0,2.1755,2.177,2.1795,2.1826,2.1849,2.1847,2.1872,2.1892,2.1922,2.1944,2.197,2.2007,2.2038,2.2059,2.2091,2.211,2.2112,2.2118,2.2118,2.2121,2.208,2.2071,2.2116,2.2116,2.2116,2.2116,2.2116,2.2116,2.1783,2.1819,2.1827,2.1872,2.1887,2.192,2.1935,2.1955,2.1973,2.2014,2.2039,2.2052,2.2075,2.2109,2.2138,2.2143,2.2155,2.2162,2.2168,2.2129,2.2124,2.212,2.2112,2.2164,2.2164,2.2207,2.2207,2.2207]},{"header":{"parameterUnit":"m.s-1","parameterCategory":1,"la1":30.2991,"la2":30.254,"lo1":-89.0895,"lo2":-89.0444,"dy":0.0017,"dx":0.0017,"nx":28,"ny":28,"refTime":"2025-06-07T21:00:00:Z","depth":0,"parameterNumber":3,"parameterNumberName":"V-component_of_WINDS"},"data":[0,0,0,0,0,0,0,0,0,0,0,0,0,0,0,0,0,0,0,0,0,0,0,0,0,0,0,0,0,0,0,0,0,0,0,0,0,0,0,0,0,0,0,0,0,0,0,0,0,0,0,0,0,0,0,0,0,0,2.1884,2.1884,0,2.1849,2.1848,2.1848,2.1829,2.1829,2.1829,2.1829,2.179,2.1789,2.1788,0,0,0,0,0,0,0,0,0,0,0,0,0,2.1932,2.1931,2.1884,2.1884,2.1883,2.1849,2.1848,2.1848,2.1829,2.1829,2.1829,2.1829,2.179,2.1789,2.1788,0,0,0,0,0,0,0,0,0,0,0,0,0,2.1905,2.1931,2.1884,2.187,2.1868,2.1849,2.1848,2.1848,2.1829,2.1829,2.1829,2.1829,2.179,2.1789,2.1787,2.1779,0,0,2.1783,2.1782,0,0,0,0,0,0,0,0,2.1907,2.1903,2.1872,2.1871,2.1869,2.1843,2.1851,2.1824,2.1829,2.1844,2.1829,2.1829,2.1807,2.1804,2.1798,2.1777,2.1775,2.1783,2.1782,2.1781,2.1781,0,0,0,0,0,0,0,2.1909,2.1905,2.187,2.1872,2.187,2.1864,2.186,2.1846,2.1826,2.1843,2.1841,2.1837,2.1806,2.1799,2.1797,2.1775,2.1783,2.1781,2.178,2.178,2.1744,2.1744,0,0,0,0,0,0,2.1913,2.1906,2.1871,2.1869,2.1888,2.1863,2.1859,2.1852,2.1826,2.1822,2.1837,2.1837,2.1802,2.1799,2.1795,2.1783,2.1781,2.178,2.1779,2.1744,2.1744,2.1744,0,0,0,0,0,0,2.1914,2.191,2.1872,2.1887,2.1882,2.1862,2.1854,2.1851,2.1844,2.1822,2.1819,2.1834,2.1802,2.1797,2.1783,2.1781,2.1779,2.1777,2.1744,2.1744,2.1744,2.1759,0,0,0,0,0,0,2.1916,2.1911,2.1908,2.1887,2.1881,2.1862,2.1854,2.185,2.1842,2.184,2.1818,2.1815,2.1801,2.1785,2.1781,2.1779,2.1776,2.1744,2.1744,2.1744,2.1758,2.1759,2.176,0,0,0,0,0,2.1918,2.1913,2.1908,2.1904,2.1878,2.1862,2.1858,2.1844,2.1842,2.1838,2.1824,2.1815,2.1782,2.1784,2.1779,2.1777,2.1744,2.1744,2.1744,2.1758,2.1759,2.176,0,0,0,0,0,0,2.1933,2.191,2.1904,2.1893,2.188,2.1859,2.1854,2.1846,2.1832,2.1831,2.1813,2.1809,2.1796,2.1785,2.1787,2.1766,2.1762,2.1761,2.1774,2.1775,2.1776,2.1779,2.1775,0,0,0,0,0,2.1935,2.1925,2.1905,2.1898,2.1891,2.1874,2.1866,2.1857,2.1842,2.1836,2.1821,2.1805,2.1791,2.1783,2.1769,2.1756,2.1751,2.1752,2.1753,2.1754,2.1753,2.1745,2.1745,2.1743,2.1743,2.1743,0,0,2.194,2.1926,2.1921,2.19,2.1889,2.1878,2.1869,2.1858,2.1849,2.1834,2.1819,2.1808,2.1789,2.1776,2.1769,2.1766,2.1752,2.1754,2.1755,2.1753,2.1745,2.1745,2.1745,2.1743,2.1743,2.1743,0,0,2.1942,2.1931,2.1923,2.1912,2.1895,2.1883,2.1881,2.1861,2.1854,2.1839,2.1827,2.1816,2.1792,2.178,2.177,2.1767,2.1758,2.1763,2.1767,2.176,2.176,2.176,2.1758,2.1758,2.1762,2.1762,2.1763,0,2.1949,2.1933,2.192,2.1909,2.19,2.1887,2.1878,2.1867,2.1846,2.184,2.1837,2.1807,2.1794,2.1777,2.1776,2.1769,2.1765,2.1766,2.1761,2.1761,2.1761,2.1759,2.1759,2.1763,2.1763,2.1763,2.1763,0,2.1943,2.1932,2.1927,2.1908,2.1899,2.1889,2.1873,2.1865,2.1856,2.1845,2.1829,2.1813,2.1795,2.1791,2.1781,2.1772,2.1771,2.1765,2.176,2.1762,2.176,2.1759,2.1764,2.1764,2.1764,2.1764,0,0,2.1954,2.1928,2.1926,2.1917,2.1897,2.1888,2.1877,2.1861,2.1854,2.184,2.183,2.181,2.1805,2.1794,2.1783,2.1776,2.1774,2.1771,2.177,2.1772,2.1762,2.1767,2.1766,2.1768,2.1768,2.1768,2.1764,0,2.1953,2.1935,2.1922,2.1908,2.1897,2.1884,2.1874,2.186,2.1849,2.1837,2.1824,2.1811,2.1805,2.1798,2.1791,2.1776,2.1772,2.1776,2.1758,2.1757,2.1763,2.1765,2.177,2.1767,2.1763,2.1763,2.1763,0,2.195,2.1937,2.1922,2.1903,2.1898,2.189,2.1874,2.1863,2.1847,2.1839,2.1827,2.1816,2.1803,2.1799,2.178,2.1784,2.1775,2.1767,2.1766,2.1764,2.176,2.1763,2.1766,2.1765,2.1762,2.1762,2.1762,0,2.1959,2.1938,2.1926,2.1919,2.1897,2.1891,2.1881,2.1865,2.1856,2.1841,2.1835,2.1819,2.181,2.1797,2.1781,2.178,2.1763,2.1758,2.1755,2.1756,2.1752,2.1753,2.1754,2.1747,2.1747,2.1747,2.1747,0,2.1959,2.195,2.193,2.1923,2.1913,2.1897,2.1887,2.1876,2.1861,2.1851,2.1838,2.1828,2.1808,2.1796,2.1783,2.1769,2.1765,2.1757,2.1754,2.1758,2.1759,2.1752,2.1752,2.1747,2.1747,2.1747,2.1747,0,2.1967,2.1953,2.194,2.192,2.1915,2.1908,2.189,2.1882,2.187,2.1857,2.1853,2.1834,2.1819,2.1802,2.178,2.1772,2.1758,2.1754,2.1764,2.1762,2.176,2.176,2.1756,2.1755,2.175,2.175,2.175,0,2.1968,2.1962,2.1941,2.1934,2.1925,2.1913,2.1904,2.1888,2.1879,2.186,2.1854,2.1838,2.1824,2.1799,2.1783,2.1766,2.1761,2.176,2.1758,2.1762,2.176,2.1761,2.1759,2.1761,2.1761,2.1761,2.1761,0,2.1971,2.1965,2.1953,2.1939,2.1928,2.1916,2.1903,2.1897,2.1879,2.1869,2.1854,2.1843,2.1821,2.1805,2.1786,2.1775,2.1764,2.1762,2.1761,2.1765,2.1771,2.1767,2.1766,2.1762,2.1762,2.1762,2.1762,2.1762,2.1976,2.1969,2.1954,2.1941,2.193,2.1918,2.1909,2.1897,2.1884,2.1866,2.1857,2.1842,2.1824,2.1798,2.1787,2.1773,2.177,2.1768,2.1767,2.1767,2.1768,2.1774,2.177,2.177,2.177,2.177,2.177,0,2.1978,2.1968,2.1956,2.1939,2.1928,2.1921,2.1906,2.1897,2.1884,2.187,2.1856,2.1838,2.1822,2.1804,2.1787,2.178,2.1774,2.1775,2.1776,2.1773,2.1772,2.1775,2.178,2.178,2.178,2.178,2.178,2.178,2.1978,2.1966,2.1958,2.194,2.1929,2.1915,2.1907,2.1895,2.1884,2.1864,2.1852,2.184,2.1824,2.1805,2.179,2.1785,2.1779,2.1781,2.1775,2.1774,2.1773,2.1772,2.1775,2.178,2.178,2.1777,2.1777,2.1777]}]]